Station: Macquarie Island  

  Atmospheric Gas Attenuation - ITU Rec 676-11   ----------------- dB/100km -----------------
Date Time Temp RH % AH g/m3 Dew Point Wind Direction Speed kph Gust kph Barometer mB Rainfall Since 9am 24GHz 47GHz 76GHz 122GHz 134GHz 241GHz
05/09 05:00 2.3 82 4.66 -0.4 41 50 975.8 1.8 11.5 21.3 27.5 72.2 55.9 188.6
05/09 04:50 2.5 81 4.66 -0.4 39 56 975.7 1.8 11.5 21.2 27.5 72.0 55.8 188.1
05/09 04:40 1.8 87 4.77 -0.1 33 46 975.7 1.8 11.8 21.6 28.1 73.8 57.7 194.8
05/09 04:30 1.4 87 4.65 -0.5 39 54 975.8 1.8 11.6 21.5 27.8 72.9 56.5 190.3
05/09 04:20 1.6 87 4.71 -0.3 37 54 975.6 1.8 11.7 21.5 28.0 73.3 57.1 192.5
05/09 04:10 1.7 87 4.74 -0.2 37 50 975.7 1.8 11.7 21.5 28.0 73.5 57.4 193.7
05/09 04:00 2 85 4.73 -0.2 33 48 975.3 1.6 11.7 21.4 27.9 73.1 57.0 192.4
05/09 03:50 1.8 86 4.72 -0.3 35 52 975.3 1.6 11.7 21.5 27.9 73.2 57.0 192.4
05/09 03:40 2.1 85 4.76 -0.2 35 46 975.2 1.6 11.8 21.5 28.0 73.3 57.3 193.5
05/09 03:30 2.3 84 4.77 -0.1 37 54 975.1 1.6 11.8 21.4 27.9 73.2 57.3 193.4
05/09 03:20 2.5 84 4.83 0.1 32 39 974.7 1.4 11.9 21.4 28.1 73.6 57.9 195.6
05/09 03:10 2.5 84 4.83 0.1 37 46 974.7 1.4 11.9 21.4 28.1 73.6 57.9 195.6
05/09 03:00 2.5 80 4.6 -0.6 41 48 974.8 1.4 11.4 21.1 27.2 71.3 55.0 185.3
05/09 02:50 2.5 83 4.78 -0.1 41 54 974.6 1.4 11.8 21.4 27.9 73.1 57.3 193.3
05/09 02:40 2.9 83 4.91 0.3 35 43 974.4 1.4 12.1 21.5 28.2 74.1 58.6 198.1
05/09 02:30 2.7 80 4.67 -0.4 37 44 974.5 1.4 11.6 21.1 27.4 71.8 55.7 187.9
05/09 02:20 2.4 81 4.63 -0.5 35 43 974.5 1.4 11.5 21.2 27.3 71.6 55.4 186.8
05/09 02:10 2.5 83 4.78 -0.1 33 43 974.6 1.4 11.8 21.4 27.9 73.1 57.3 193.3
05/09 02:00 2.4 83 4.74 -0.2 32 43 974.6 1.4 11.7 21.3 27.8 72.8 56.8 191.8
05/09 01:50 2.6 85 4.92 0.3 30 37 974.4 1.4 12.1 21.6 28.4 74.5 59.0 199.3
05/09 01:40 2.3 86 4.88 0.2 28 35 974.5 1.4 12.0 21.6 28.3 74.3 58.7 198.3
05/09 01:30 2.4 85 4.86 0.1 35 46 974.6 1.4 12.0 21.5 28.2 74.0 58.4 197.2
05/09 01:20 2.7 85 4.96 0.4 30 48 974.5 1.4 12.2 21.6 28.5 74.8 59.4 200.9
05/09 01:10 2.3 83 4.71 -0.3 33 43 974.5 1.4 11.7 21.3 27.7 72.6 56.5 190.6
05/09 01:00 2.1 84 4.7 -0.3 39 46 974.5 1.4 11.6 21.3 27.7 72.6 56.5 190.7
05/09 00:50 2.6 87 5.04 0.7 32 41 974.6 1.4 12.4 21.7 28.9 75.7 60.5 204.8
05/09 00:40 2.3 88 5 0.5 32 39 974.5 1.4 12.3 21.8 28.8 75.6 60.2 203.7
05/09 00:30 2.2 90 5.07 0.7 30 33 974.5 1.4 12.4 21.9 29.1 76.4 61.2 207.2
05/09 00:20 2.1 88 4.93 0.3 41 61 974.6 1.4 12.1 21.7 28.6 75.1 59.5 201.1
05/09 00:10 2.9 85 5.02 0.6 33 43 974.5 1.4 12.3 21.6 28.7 75.2 60.0 203.1
05/09 00:00 2.4 87 4.97 0.5 30 37 974.6 1.4 12.2 21.7 28.7 75.2 59.8 202.1
04/09 23:50 2.4 88 5.03 0.6 35 43 974.5 1.4 12.3 21.8 28.9 75.8 60.5 204.8
04/09 23:40 2.5 88 5.06 0.7 41 50 974.6 1.4 12.4 21.8 29.0 76.0 60.9 206.0
04/09 23:30 2.5 84 4.83 0.1 35 50 974.5 1.4 11.9 21.4 28.1 73.6 57.9 195.5
04/09 23:20 2.3 88 5 0.5 33 43 974.6 1.4 12.3 21.8 28.8 75.6 60.2 203.8
04/09 23:10 2.1 88 4.93 0.3 33 44 974.6 1.4 12.1 21.7 28.6 75.1 59.5 201.1
04/09 23:00 2 87 4.84 0.1 39 57 974.7 1.4 11.9 21.6 28.3 74.2 58.4 197.3
04/09 22:50 2.8 84 4.93 0.4 39 52 974.5 1 12.1 21.5 28.3 74.4 58.9 199.3
04/09 22:40 2.8 83 4.87 0.2 37 48 974.6 1 12.0 21.4 28.1 73.8 58.2 196.6
04/09 22:30 2.8 84 4.93 0.4 39 52 974.5 1 12.1 21.5 28.3 74.4 58.9 199.3
04/09 22:20 2.7 85 4.96 0.4 44 56 974.3 1 12.2 21.6 28.5 74.8 59.4 200.9
04/09 22:10 2.7 84 4.9 0.3 44 56 974.2 1 12.1 21.5 28.3 74.1 58.6 198.1
04/09 22:00 2.6 84 4.87 0.2 46 59 974.1 1 12.0 21.5 28.2 73.9 58.3 197.0
04/09 21:50 2.7 87 5.07 0.8 46 59 974 1 12.4 21.7 28.9 75.9 60.8 205.8
04/09 21:40 2.5 88 5.06 0.7 44 57 973.9 1 12.4 21.8 28.9 76.0 60.8 205.8
04/09 21:30 2.3 88 5 0.5 46 63 974 1 12.3 21.7 28.8 75.5 60.2 203.6
04/09 21:20 3.1 87 5.21 1.2 39 50 973.6 1 12.7 21.9 29.3 76.9 62.3 211.0
04/09 21:10 3.1 86 5.15 1 48 67 973.8 1 12.6 21.8 29.1 76.3 61.5 208.3
04/09 21:00 3.2 83 5.01 0.6 48 57 973.5 1 12.3 21.5 28.5 74.7 59.6 201.7
04/09 20:50 3.2 84 5.07 0.8 48 57 973.5 1 12.4 21.6 28.7 75.4 60.4 204.4
04/09 20:40 3.1 86 5.15 1 46 56 973.5 1 12.6 21.8 29.1 76.3 61.5 208.3
04/09 20:30 2.9 85 5.02 0.6 50 61 973.6 1 12.3 21.6 28.6 75.1 60.0 202.9
04/09 20:20 2.7 83 4.84 0.1 54 76 973.5 1 11.9 21.4 28.0 73.5 57.8 195.3
04/09 20:10 3.4 84 5.14 1 44 52 973.3 1 12.6 21.7 28.9 75.9 61.1 207.0
04/09 20:00 3.4 85 5.2 1.1 44 52 973.5 1 12.7 21.8 29.1 76.5 61.9 209.7
04/09 19:50 3.2 87 5.25 1.3 43 52 973.7 1 12.8 21.9 29.4 77.3 62.7 212.6
04/09 19:40 2.8 90 5.28 1.3 39 52 973.7 1 12.9 22.0 29.7 78.0 63.4 215.0
04/09 19:30 2.7 91 5.31 1.4 41 48 973.8 1 12.9 22.1 29.8 78.4 63.9 216.7
04/09 19:20 2.5 92 5.29 1.3 39 50 973.9 1 12.9 22.1 29.8 78.4 63.8 216.4
04/09 19:10 2.2 92 5.19 1 41 46 973.9 1 12.7 22.1 29.6 77.6 62.8 212.6
04/09 19:00 2.1 92 5.15 0.9 41 48 973.9 1 12.6 22.0 29.4 77.3 62.3 211.0
04/09 18:50 2.3 93 5.28 1.3 35 43 974 1 12.9 22.2 29.9 78.5 63.9 216.5
04/09 18:40 2.2 92 5.19 1 32 39 974.2 1 12.7 22.1 29.6 77.7 62.8 212.6
04/09 18:30 2.2 91 5.13 0.9 35 46 974.2 1 12.6 22.0 29.3 77.0 62.0 209.9
04/09 18:20 2.4 89 5.09 0.8 37 44 974.4 0.8 12.5 21.9 29.1 76.4 61.3 207.6
04/09 18:10 2.8 83 4.87 0.2 44 65 974.4 0.6 12.0 21.4 28.1 73.7 58.2 196.6
04/09 18:00 3.8 83 5.21 1.2 35 43 974.1 0.4 12.7 21.7 29.1 76.3 61.7 209.2
04/09 17:50 3.6 82 5.08 0.8 39 46 974.1 0.4 12.4 21.6 28.6 75.1 60.2 203.9
04/09 17:40 3.8 82 5.15 1 35 43 974.2 0.4 12.6 21.6 28.8 75.7 61.0 206.5
04/09 17:30 3.8 84 5.27 1.4 37 46 974.4 0.4 12.8 21.8 29.3 76.9 62.5 212.0
04/09 17:20 3.7 83 5.18 1.1 41 48 974.4 0.4 12.6 21.7 29.0 76.1 61.5 208.2
04/09 17:10 3.7 86 5.36 1.6 37 46 974.4 0.4 13.0 22.0 29.7 78.0 63.8 216.3
04/09 17:00 3.2 88 5.31 1.4 35 43 974.5 0.4 12.9 22.0 29.7 78.0 63.5 215.5
04/09 16:50 3 86 5.12 0.9 44 57 974.6 0.4 12.5 21.8 29.0 76.2 61.2 207.4
04/09 16:40 3.9 81 5.12 0.9 43 54 974.3 0.4 12.5 21.5 28.7 75.3 60.5 205.0
04/09 16:30 4 80 5.09 0.9 41 50 974.5 0.4 12.4 21.5 28.5 74.9 60.1 203.4
04/09 16:20 3.9 81 5.12 0.9 43 56 974.6 0.4 12.5 21.6 28.7 75.3 60.5 205.0
04/09 16:10 3.6 84 5.2 1.2 41 57 974.6 0.4 12.7 21.8 29.1 76.4 61.8 209.4
04/09 16:00 3.5 88 5.42 1.7 41 50 974.5 0.4 13.2 22.1 30.0 78.8 64.7 219.6
04/09 15:50 3.2 88 5.31 1.4 43 50 974.6 0.4 12.9 22.0 29.7 78.0 63.5 215.5
04/09 15:40 2.9 88 5.2 1.1 50 67 974.6 0.4 12.7 21.9 29.4 77.1 62.4 211.3
04/09 15:30 3.9 83 5.25 1.3 46 56 974.5 0.4 12.8 21.8 29.2 76.6 62.2 210.8
04/09 15:20 3.8 85 5.34 1.5 44 56 974.6 0.4 13.0 21.9 29.6 77.7 63.4 215.2
04/09 15:10 3.7 84 5.24 1.3 48 57 974.6 0.4 12.8 21.8 29.2 76.7 62.2 210.9
04/09 15:00 3.7 84 5.24 1.3 48 57 974.6 0.4 12.8 21.8 29.2 76.7 62.2 210.9
04/09 14:50 3.7 87 5.43 1.7 48 67 974.6 0.4 13.2 22.1 30.0 78.7 64.7 219.5
04/09 14:40 3.7 83 5.18 1.1 37 67 974.4 0.4 12.6 21.7 29.0 76.1 61.5 208.2
04/09 14:30 3.9 85 5.37 1.6 32 41 974.7 0.2 13.0 22.0 29.7 77.9 63.8 216.3
04/09 14:20 4 81 5.15 1 35 44 974.7 0.2 12.6 21.6 28.8 75.5 60.8 206.1
04/09 14:10 4.5 81 5.33 1.5 32 41 974.7 0.2 12.9 21.7 29.3 76.9 62.7 212.8
04/09 14:00 4.5 79 5.2 1.2 35 41 974.8 0.2 12.6 21.5 28.8 75.6 61.1 207.1
04/09 13:50 4.5 78 5.13 1 39 44 974.9 0.2 12.5 21.4 28.5 74.9 60.2 204.0
04/09 13:40 4.5 79 5.2 1.2 35 41 974.8 0.2 12.6 21.5 28.8 75.6 61.1 207.1
04/09 13:30 4.7 80 5.33 1.6 35 43 975 0.2 12.9 21.7 29.2 76.7 62.6 212.4
04/09 13:20 4.8 81 5.44 1.8 35 39 975.1 0.2 13.2 21.9 29.6 77.8 63.9 217.0
04/09 13:10 5.1 80 5.48 1.9 35 41 975 0.2 13.2 21.8 29.7 77.9 64.2 218.0
04/09 13:00 4.9 81 5.47 1.9 33 41 975.1 0.2 13.2 21.9 29.7 78.0 64.2 218.1
04/09 12:50 4.8 81 5.44 1.8 35 41 975 0.2 13.2 21.9 29.6 77.8 63.9 217.0
04/09 12:40 4.9 82 5.54 2.1 35 43 975 0.2 13.4 22.0 30.0 78.7 65.1 221.2
04/09 12:30 5.4 82 5.73 2.6 35 46 975 0.2 13.8 22.2 30.5 80.2 67.1 228.4

Last Refresh: 05-Sep-2026 04:43:57

Bureau of Meteorology